DMSP 5D-2 F13 DEB, 42320

Orbit data source: Space-Track

DMSP 5D-2 F13 DEB, 42320 is space debris in SSO originally from a launch on Fri, 24 Mar 1995 UTC launched from the Air Force Western Test Range (AFWTR). Debris objects in space refer to the collection of defunct objects orbiting the Earth. Examples of debris include non-operational satellites, rocket bodies, and fragments generated from explosions, collisions, or faulty payload assembly.

Loading next visibility...
Identifier
42320, 1995-015JN
Orbit
SSO
Country
Flag of USUS
Related business
Manufacturer
Unknown
Mission
Spacecraft
Bus & Motor
Unknown
Mass
Unknown
Launch date (UTC)
1995-03-24 (31 years ago)
Launch vehicle
Unknown
Launch site
Air Force Western Test Range (AFWTR)
Object type
Payload
Rocket body
Debris
Shape & HBR
Unknown shape, 0.1 m
Radar Cross Section
Small (<0.1 m²)

Expand to show TLE details & history
Last TLE update: 22 hours ago

TLE from 22 hours ago
0 DMSP 5D-2 F13 DEB
1 42320U 95015JN  26132.85138317  .00003239  00000-0  94544-3 0  9997
2 42320  98.6263 175.9044 0005371   7.0571 353.0694 14.44774407577082
Epoch: 2026-05-12T20:25Z
TLE epoch observation values (Epoch: 2026-05-12T20:25:59.505Z)
Latitude
-0.00006°
Longitude
-1.21336°
Altitude
741.921 km
Speed
7.486 km/s
True Right ascension
11h 43m 37s
True Declination
0° 00' 00"
Sunlit
Object was in full shadow at epoch
Visualization orbit readout
Latitude
Unknown
Longitude
Unknown
Altitude
Unknown
Speed
Unknown
Apparent Right ascension
Unknown
Apparent Declination
Unknown
Sunlit
N/A
Visualization observer readout
Local Sidereal Time
03:14:39
Azimuth
Unknown
Elevation
Unknown
Doppler factor
Unknown
Orbital elements
Apogee altitude
743.712 km
Perigee altitude
736.066 km
Semi-major axis
7,118.026 km
Eccentricity
0.00054
Inclination
98.6263°
RAAN
175.9044°
Arg. of periapsis
7.0571°
True anomaly
353.06197°
Mean anomaly
353.0694°
Eccentric anomaly
353.06568°
Mean motion
3.61413 °/min
Orbital period
99.61 mins
BSTAR
0.00094544

Documentation

Showing up to 5 results
|